DELTA 1 DEB, 7175

Orbit data source: Space-Track

DELTA 1 DEB, 7175 is space debris in SSO originally from a launch on Tue, 06 Nov 1973 UTC launched from the Air Force Western Test Range (AFWTR). Debris objects in space refer to the collection of defunct objects orbiting the Earth. Examples of debris include non-operational satellites, rocket bodies, and fragments generated from explosions, collisions, or faulty payload assembly.

Loading next visibility...
Identifier
7175, 1973-086EM
Orbit
SSO
Country
Flag of USUS
Related business
Manufacturer
Unknown
Mission
Spacecraft
Bus & Motor
Unknown
Mass
Unknown
Launch date (UTC)
1973-11-06 (52 years ago)
Launch vehicle
Unknown
Launch site
Air Force Western Test Range (AFWTR)
Object type
Payload
Rocket body
Debris
Shape & HBR
Unknown shape, 0.1 m
Radar Cross Section
Small (<0.1 m²)

Expand to show TLE details & history
Last TLE update: 19 hours ago

TLE from 19 hours ago
0 DELTA 1 DEB
1 07175U 73086EM  25304.00398068  .00000838  00000-0  29673-2 0  9990
2 07175 102.6111 124.2369 0196802 317.2502 205.3943 12.93948646439304
Epoch: 2025-10-31T00:05Z
TLE epoch observation values (Epoch: 2025-10-31T00:05:43.930Z)
Latitude
17.83908°
Longitude
-92.64223°
Altitude
1,424.746 km
Speed
7.086 km/s
True Right ascension
20h 33m 22s
True Declination
17° 44' 51"
Sunlit
Object was in daylight at epoch
Visualization orbit readout
Latitude
Unknown
Longitude
Unknown
Altitude
Unknown
Speed
Unknown
Apparent Right ascension
Unknown
Apparent Declination
Unknown
Sunlit
N/A
Visualization observer readout
Local Sidereal Time
14:26:20
Azimuth
Unknown
Elevation
Unknown
Doppler factor
Unknown
Orbital elements
Apogee altitude
1,434.215 km
Perigee altitude
1,132.652 km
Semi-major axis
7,661.571 km
Eccentricity
0.01968
Inclination
102.6111°
RAAN
124.2369°
Arg. of periapsis
317.2502°
True anomaly
204.44826°
Mean anomaly
205.3943°
Eccentric anomaly
204.9192°
Mean motion
3.23643 °/min
Orbital period
111.23 mins
BSTAR
0.0029673
Loading maneuver chart data...
Computing Atmospheric mass density...
Loading historical data...
Loading historical data...
Loading historical data...
Loading historical data...
Loading historical data...
Loading historical data...
Loading historical data...

Documentation

Showing up to 5 results
|